[[{"header":{"parameterUnit":"m.s-1","parameterCategory":1,"la1":30.2992,"la2":30.254,"lo1":-89.0895,"lo2":-89.0443,"dy":0.0025,"dx":0.0025,"nx":19,"ny":19,"refTime":"2026-03-20T03:00:00:Z","depth":0,"parameterNumber":2,"parameterNumberName":"U-component_of_WINDS"},"data":[0,0,0,3.2298,3.2301,3.242,3.242,3.2572,3.2573,0,0,0,0,0,0,0,0,0,0,0,3.2262,3.2263,3.2298,3.2301,3.242,3.242,3.2571,3.2573,0,0,0,0,0,0,0,0,0,0,0,3.2261,3.2263,3.2264,3.2302,3.242,3.242,3.2571,3.2482,0,0,0,0,0,0,0,0,0,0,3.2367,3.2331,3.2262,3.2264,3.2302,3.2419,3.242,3.2478,3.2488,3.2517,0,3.2542,0,3.256,3.2583,3.2584,0,0,0,3.2303,3.2323,3.2356,3.2264,3.2303,3.2419,3.2367,3.2483,3.2494,3.253,3.2544,3.255,3.2562,3.2584,3.2585,3.2749,3.275,0,0,3.2296,3.2283,3.2349,3.2363,3.2344,3.2363,3.237,3.249,3.2505,3.2545,3.2554,3.2565,3.2585,3.2586,3.2748,3.2749,0,0,0,3.2276,3.2278,3.2308,3.2357,3.2378,3.2366,3.2375,3.25,3.2511,3.2555,3.2567,3.2586,3.2588,3.2748,3.2749,3.277,0,0,0,3.2272,3.2266,3.2305,3.2298,3.2376,3.244,3.2382,3.2502,3.2516,3.2566,3.2586,3.2589,3.2747,3.2748,3.2767,3.2782,0,0,0,3.2255,3.2264,3.2281,3.2297,3.2348,3.2439,3.2457,3.2506,3.2523,3.2584,3.2589,3.2746,3.2748,3.2765,3.2779,3.2821,0,0,0,3.2232,3.2298,3.2281,3.236,3.2347,3.245,3.2456,3.2534,3.2588,3.2587,3.2747,3.2749,3.2765,3.2777,3.2819,3.2854,3.2867,0,0,3.2308,3.2307,3.2354,3.2342,3.2445,3.2433,3.254,3.2603,3.2622,3.2706,3.271,3.2768,3.2778,3.282,3.2947,3.2957,0,0,0,3.2374,3.2408,3.2438,3.2489,3.2538,3.2582,3.263,3.2653,3.2725,3.2662,3.2795,3.2802,3.2827,3.2845,3.2854,3.2876,3.2756,3.2756,3.2756,3.2462,3.2482,3.2562,3.2596,3.2645,3.2694,3.2736,3.2777,3.2783,3.2814,3.2839,3.2913,3.2933,3.294,3.2963,3.2859,3.2859,3.2859,3.2859,3.2575,3.2626,3.2633,3.2712,3.2733,3.2801,3.2851,3.2853,3.292,3.2896,3.2919,3.2891,3.295,3.2972,3.2861,3.2861,3.2861,3.2861,3.286,3.2635,3.2663,3.269,3.2765,3.2822,3.2855,3.2918,3.2936,3.2953,3.2976,3.3004,3.3003,3.3005,3.2988,3.2988,3.2988,3.2989,3.2989,3.2989,3.2686,3.2716,3.2766,3.2825,3.286,3.2908,3.2959,3.2994,3.3038,3.3045,3.3046,3.3049,3.2953,3.2928,3.2993,3.2992,3.2992,3.2991,3.2991,3.2792,3.2771,3.2849,3.2884,3.2955,3.301,3.3031,3.3102,3.3134,3.3165,3.3163,3.3089,3.309,3.3083,3.3062,3.3158,3.3158,3.3158,3.3158,3.2842,3.2844,3.2928,3.2983,3.3039,3.3066,3.3156,3.3196,3.3235,3.3256,3.3245,3.3219,3.3212,3.3217,3.3207,3.3188,3.3314,3.3314,3.3314,3.2909,3.2917,3.2988,3.3025,3.3082,3.313,3.3214,3.3278,3.3318,3.3321,3.3273,3.3266,3.3226,3.3211,3.3212,3.3197,3.3163,0,0]},{"header":{"parameterUnit":"m.s-1","parameterCategory":1,"la1":30.2992,"la2":30.254,"lo1":-89.0895,"lo2":-89.0443,"dy":0.0025,"dx":0.0025,"nx":19,"ny":19,"refTime":"2026-03-20T03:00:00:Z","depth":0,"parameterNumber":3,"parameterNumberName":"V-component_of_WINDS"},"data":[0,0,0,1.611,1.611,1.6081,1.6081,1.6049,1.6048,0,0,0,0,0,0,0,0,0,0,0,1.6123,1.6123,1.611,1.611,1.6081,1.6081,1.6049,1.6048,0,0,0,0,0,0,0,0,0,0,0,1.6123,1.6123,1.6123,1.6109,1.6081,1.6081,1.6049,1.6068,0,0,0,0,0,0,0,0,0,0,1.6095,1.6112,1.6123,1.6123,1.6109,1.6081,1.6081,1.6069,1.6067,1.6064,0,1.6064,0,1.6056,1.6047,1.6047,0,0,0,1.6106,1.6113,1.6102,1.6123,1.6109,1.6081,1.6093,1.6068,1.6066,1.6061,1.6063,1.6062,1.6055,1.6047,1.6046,1.6045,1.6045,0,0,1.6107,1.612,1.6104,1.6101,1.6107,1.6094,1.6092,1.6066,1.6069,1.6063,1.6061,1.6055,1.6046,1.6046,1.6045,1.6045,0,0,0,1.6114,1.6121,1.611,1.6102,1.6097,1.6093,1.6091,1.607,1.6065,1.6061,1.6054,1.6046,1.6046,1.6045,1.6045,1.6066,0,0,0,1.6115,1.6125,1.6111,1.6118,1.6098,1.6083,1.6095,1.6067,1.6064,1.6055,1.6046,1.6046,1.6045,1.6045,1.6065,1.6074,0,0,0,1.6123,1.6126,1.6123,1.6119,1.6107,1.6084,1.6077,1.6066,1.606,1.6047,1.6046,1.6044,1.6045,1.6064,1.6072,1.6077,0,0,0,1.6135,1.6142,1.6124,1.6129,1.6107,1.6097,1.6078,1.6069,1.606,1.6046,1.6045,1.6045,1.6064,1.6071,1.6076,1.6084,1.6088,0,0,1.615,1.6144,1.6146,1.6129,1.6126,1.6101,1.6099,1.6078,1.6065,1.6052,1.6052,1.6065,1.6072,1.6077,1.6108,1.6112,0,0,0,1.6155,1.6156,1.6152,1.6145,1.6131,1.6118,1.6097,1.6089,1.6078,1.6062,1.6068,1.6072,1.6074,1.6077,1.608,1.6081,1.6047,1.6047,1.6047,1.6193,1.6177,1.6179,1.616,1.6153,1.6131,1.6123,1.6108,1.6093,1.6095,1.6091,1.6112,1.6116,1.6118,1.612,1.6093,1.6094,1.6094,1.6094,1.6214,1.6214,1.6194,1.619,1.6172,1.6167,1.6146,1.6135,1.6127,1.6114,1.6115,1.6102,1.6123,1.6123,1.6095,1.6095,1.6095,1.6094,1.6094,1.6238,1.6235,1.6226,1.6214,1.6207,1.6186,1.618,1.6163,1.6148,1.6149,1.6143,1.6142,1.614,1.6147,1.6147,1.6147,1.6147,1.6147,1.6148,1.6266,1.6255,1.6253,1.6239,1.6232,1.6221,1.6199,1.6191,1.6178,1.6167,1.6167,1.6151,1.6128,1.6123,1.6149,1.6148,1.6148,1.6148,1.6148,1.6293,1.6284,1.6281,1.6274,1.6256,1.6249,1.6229,1.6215,1.6206,1.6203,1.6187,1.6173,1.6165,1.6162,1.6158,1.6191,1.6191,1.6191,1.6191,1.6313,1.6307,1.63,1.6291,1.628,1.6261,1.6257,1.6239,1.622,1.6213,1.6206,1.6198,1.6196,1.6189,1.6186,1.6182,1.622,1.622,1.622,1.6328,1.6321,1.6321,1.6304,1.6288,1.6275,1.627,1.6259,1.6234,1.6221,1.6207,1.6206,1.6194,1.6191,1.6177,1.6172,1.6164,0,0]}]]